Weather History for Faribault, MN

Change the Weather History Date:

Monday, November 12, 2012

  Actual Average Record
Temperature  
Mean Temperature 22 °F -  
Max Temperature 24 °F 38 °F 64 °F (1952)
Min Temperature 19 °F 22 °F -5 °F (1966)
Degree Days  
Heating Degree Days 44    
Moisture  
Dew Point 17 °F    
Average Humidity 82    
Maximum Humidity 93    
Minimum Humidity 69    
Precipitation  
Precipitation 0.00 in - - ()
Sea Level Pressure  
Sea Level Pressure 30.09 in    
Wind  
Wind Speed 13 mph (WSW)    
Max Wind Speed 22 mph    
Max Gust Speed 31 mph    
Visibility 9 miles    
Events Snow    
Averages and records for this station are not official NWS values.
T = Trace of Precipitation, MM = Missing Value Source: NWS Daily Summary

Daily Weather History Graph

Daily Weather History Graph

Search for Another Location

Airport:

Trip Planner

Search our weather history database for the weather conditions in past years. The results will help you decide how hot, cold, wet, or windy it might be!

Date:

Astronomy

Nov. 12, 2012 Rise Set
Actual Time 7:05 AM CST 4:48 PM CST
Civil Twilight 6:34 AM CST 5:19 PM CST
Nautical Twilight 5:59 AM CST 5:54 PM CST
Astronomical Twilight 5:25 AM CST 6:28 PM CST
Moon 5:30 AM CST (11/12) 3:55 PM CST (11/12)
Length of Visible Light 10h 45m
Length of Day
9h 42m
Waning Crescent, 2% of the Moon is Illuminated
Nov 12
Waning Crescent
Nov 13
New
Nov 20
First Quarter
Nov 28
Full
Dec 6
Last Quarter

Hourly Weather History & Observations

Time (CST) Temp. Windchill Dew Point Humidity Pressure Visibility Wind Dir Wind Speed Gust Speed Precip Events Conditions
12:14 AM 21.2 °F 8.9 °F 15.8 °F 80% 29.96 in 10.0 mi West 12.7 mph 20.7 mph N/A   Overcast
12:54 AM 21.2 °F 8.9 °F 15.8 °F 80% 29.96 in 10.0 mi WSW 12.7 mph - N/A   Overcast
1:14 AM 21.2 °F 7.8 °F 15.8 °F 80% 29.96 in 10.0 mi WSW 15.0 mph 18.4 mph N/A Snow Light Snow
1:34 AM 21.2 °F 5.2 °F 14.0 °F 74% 29.97 in 10.0 mi West 21.9 mph 31.1 mph N/A   Overcast
1:54 AM 21.2 °F 10.1 °F 14.0 °F 74% 29.96 in 10.0 mi WSW 10.4 mph - N/A   Mostly Cloudy
2:14 AM 19.4 °F 5.0 °F 12.2 °F 74% 29.97 in 10.0 mi WSW 16.1 mph 24.2 mph N/A   Mostly Cloudy
2:34 AM 19.4 °F 6.6 °F 14.0 °F 80% 29.97 in 10.0 mi WSW 12.7 mph 19.6 mph N/A   Mostly Cloudy
2:54 AM 19.4 °F 4.5 °F 14.0 °F 80% 29.97 in 10.0 mi WSW 17.3 mph 25.3 mph N/A   Scattered Clouds
3:14 AM 19.4 °F 5.5 °F 14.0 °F 80% 29.97 in 10.0 mi WSW 15.0 mph 21.9 mph N/A   Clear
3:34 AM 19.4 °F 6.0 °F 14.0 °F 80% 29.97 in 10.0 mi WSW 13.8 mph 19.6 mph N/A   Clear
3:54 AM 19.4 °F 7.9 °F 14.0 °F 80% 29.97 in 10.0 mi WSW 10.4 mph - N/A   Clear
4:14 AM 19.4 °F 10.4 °F 14.0 °F 80% 29.97 in 10.0 mi SW 6.9 mph - N/A   Mostly Cloudy
4:34 AM 19.4 °F 7.9 °F 14.0 °F 80% 29.97 in 10.0 mi SW 10.4 mph - N/A   Mostly Cloudy
4:54 AM 19.4 °F 9.5 °F 14.0 °F 80% 29.97 in 10.0 mi SW 8.1 mph - N/A   Scattered Clouds
5:14 AM 19.4 °F 7.2 °F 14.0 °F 80% 29.97 in 10.0 mi SW 11.5 mph 16.1 mph N/A   Clear
5:34 AM 19.4 °F 7.9 °F 15.8 °F 86% 29.97 in 10.0 mi SW 10.4 mph 17.3 mph N/A   Clear
5:54 AM 19.4 °F 7.2 °F 15.8 °F 86% 29.97 in 10.0 mi SW 11.5 mph 17.3 mph N/A   Scattered Clouds
6:14 AM 19.4 °F 6.6 °F 15.8 °F 86% 29.97 in 10.0 mi SW 12.7 mph 17.3 mph N/A Snow Light Snow
6:34 AM 19.4 °F 7.2 °F 15.8 °F 86% 29.97 in 7.0 mi SW 11.5 mph 18.4 mph N/A   Overcast
6:54 AM 19.4 °F 7.2 °F 17.6 °F 93% 29.98 in 4.0 mi SW 11.5 mph - N/A Snow Light Snow
7:14 AM 19.4 °F 6.6 °F 17.6 °F 93% 29.98 in 2.5 mi SW 12.7 mph 18.4 mph N/A Snow Light Snow
7:34 AM 19.4 °F 7.9 °F 17.6 °F 93% 29.99 in 1.2 mi SW 10.4 mph - N/A Snow Light Snow
7:54 AM 21.2 °F 10.9 °F 19.4 °F 93% 29.99 in 1.8 mi SW 9.2 mph - N/A Snow Light Snow
8:14 AM 21.2 °F 9.5 °F 17.6 °F 86% 30.00 in 4.0 mi WSW 11.5 mph 20.7 mph N/A Snow Light Snow
8:34 AM 21.2 °F 8.9 °F 19.4 °F 93% 30.00 in 3.0 mi West 12.7 mph 17.3 mph N/A Snow Light Snow
8:54 AM 21.2 °F 9.5 °F 17.6 °F 86% 30.01 in 10.0 mi West 11.5 mph 23.0 mph N/A   Overcast
9:14 AM 21.2 °F 8.3 °F 17.6 °F 86% 30.01 in 10.0 mi West 13.8 mph 21.9 mph N/A   Overcast
9:34 AM 21.2 °F 7.8 °F 17.6 °F 86% 30.02 in 10.0 mi West 15.0 mph - N/A   Overcast
9:54 AM 21.2 °F 6.4 °F 17.6 °F 86% 30.02 in 10.0 mi West 18.4 mph 23.0 mph N/A   Overcast
10:13 AM 23.0 °F 9.6 °F 17.6 °F 80% 30.03 in 10.0 mi WSW 16.1 mph 24.2 mph N/A   Overcast
10:34 AM 21.2 °F 8.9 °F 19.4 °F 93% 30.04 in 2.0 mi West 12.7 mph 24.2 mph N/A Snow Light Snow
10:54 AM 21.2 °F 8.9 °F 17.6 °F 86% 30.05 in 4.0 mi West 12.7 mph 21.9 mph N/A Snow Light Snow
11:14 AM 23.0 °F 9.2 °F 17.6 °F 80% 30.05 in 10.0 mi West 17.3 mph 23.0 mph N/A   Overcast
11:34 AM 23.0 °F 9.6 °F 15.8 °F 74% 30.05 in 10.0 mi West 16.1 mph 25.3 mph N/A Snow Light Snow
11:54 AM 23.0 °F 8.7 °F 17.6 °F 80% 30.05 in 3.0 mi WSW 18.4 mph 23.0 mph N/A Snow Light Snow
12:13 PM 21.2 °F 9.5 °F 15.8 °F 80% 30.06 in 10.0 mi West 11.5 mph 21.9 mph N/A Snow Light Snow
12:34 PM 24.8 °F 10.7 °F 15.8 °F 69% 30.06 in 10.0 mi West 19.6 mph 28.8 mph N/A   Mostly Cloudy
12:54 PM 24.8 °F 11.1 °F 17.6 °F 74% 30.07 in 10.0 mi West 18.4 mph 26.5 mph N/A   Overcast
1:14 PM 23.0 °F 9.6 °F 15.8 °F 74% 30.07 in 10.0 mi West 16.1 mph 24.2 mph N/A   Overcast
1:34 PM 24.8 °F 12.4 °F 17.6 °F 74% 30.08 in 10.0 mi West 15.0 mph 25.3 mph N/A   Overcast
1:54 PM 24.8 °F 12.4 °F 17.6 °F 74% 30.08 in 10.0 mi West 15.0 mph 27.6 mph N/A   Overcast
2:14 PM 24.8 °F 11.5 °F 17.6 °F 74% 30.09 in 10.0 mi West 17.3 mph 21.9 mph N/A   Overcast
2:34 PM 24.8 °F 11.9 °F 17.6 °F 74% 30.10 in 10.0 mi West 16.1 mph 23.0 mph N/A   Overcast
2:54 PM 24.8 °F 11.1 °F 17.6 °F 74% 30.11 in 10.0 mi West 18.4 mph 24.2 mph N/A   Overcast
3:14 PM 24.8 °F 12.9 °F 17.6 °F 74% 30.12 in 10.0 mi West 13.8 mph - N/A   Overcast
3:34 PM 24.8 °F 12.4 °F 17.6 °F 74% 30.13 in 10.0 mi West 15.0 mph 24.2 mph N/A   Overcast
3:54 PM 24.8 °F 11.9 °F 17.6 °F 74% 30.14 in 10.0 mi West 16.1 mph - N/A   Overcast
4:34 PM 24.8 °F 12.9 °F 17.6 °F 74% 30.16 in 10.0 mi West 13.8 mph - N/A   Mostly Cloudy
4:54 PM 23.0 °F 10.1 °F 17.6 °F 80% 30.16 in 10.0 mi West 15.0 mph 19.6 mph N/A   Scattered Clouds
5:14 PM 23.0 °F 11.7 °F 17.6 °F 80% 30.17 in 10.0 mi West 11.5 mph - N/A   Clear
5:34 PM 23.0 °F 11.7 °F 17.6 °F 80% 30.18 in 10.0 mi West 11.5 mph 20.7 mph N/A   Clear
5:54 PM 23.0 °F 12.4 °F 17.6 °F 80% 30.19 in 10.0 mi West 10.4 mph 17.3 mph N/A   Clear
6:13 PM 23.0 °F 11.7 °F 17.6 °F 80% 30.20 in 10.0 mi West 11.5 mph - N/A   Clear
6:34 PM 23.0 °F 12.4 °F 17.6 °F 80% 30.20 in 10.0 mi West 10.4 mph 17.3 mph N/A   Clear
6:54 PM 21.2 °F 11.7 °F 17.6 °F 86% 30.21 in 10.0 mi West 8.1 mph - N/A   Clear
7:13 PM 21.2 °F 12.6 °F 17.6 °F 86% 30.22 in 10.0 mi West 6.9 mph - N/A   Clear
7:34 PM 21.2 °F 12.6 °F 17.6 °F 86% 30.22 in 10.0 mi WSW 6.9 mph - N/A   Clear
7:54 PM 19.4 °F 10.4 °F 17.6 °F 93% 30.23 in 10.0 mi WSW 6.9 mph - N/A   Clear
8:34 PM 21.2 °F 11.7 °F 17.6 °F 86% 30.25 in 10.0 mi WSW 8.1 mph - N/A   Clear
8:54 PM 21.2 °F 11.7 °F 17.6 °F 86% 30.25 in 10.0 mi WSW 8.1 mph - N/A   Clear
9:13 PM 21.2 °F 11.7 °F 17.6 °F 86% 30.25 in 10.0 mi WSW 8.1 mph - N/A   Clear
9:34 PM 21.2 °F 12.6 °F 17.6 °F 86% 30.26 in 10.0 mi WSW 6.9 mph - N/A   Clear
9:54 PM 21.2 °F 11.7 °F 17.6 °F 86% 30.27 in 10.0 mi WSW 8.1 mph - N/A   Clear
10:14 PM 21.2 °F 13.6 °F 17.6 °F 86% 30.27 in 10.0 mi WSW 5.8 mph - N/A   Clear
10:34 PM 21.2 °F 13.6 °F 17.6 °F 86% 30.28 in 10.0 mi WSW 5.8 mph - N/A   Clear
10:54 PM 21.2 °F 11.7 °F 17.6 °F 86% 30.28 in 10.0 mi West 8.1 mph - N/A   Clear
11:14 PM 21.2 °F 12.6 °F 17.6 °F 86% 30.28 in 10.0 mi West 6.9 mph - N/A   Clear
11:34 PM 21.2 °F 12.6 °F 17.6 °F 86% 30.29 in 10.0 mi West 6.9 mph - N/A   Clear
11:54 PM 19.4 °F 12.8 °F 15.8 °F 86% 30.30 in 10.0 mi SSW 4.6 mph - N/A   Clear